START_TIME,STEP,MOV.,H8,t_acc.,H43,t_acc.,M25,t_acc.,H9,t_acc.
1981-08-24 12:00:30.550 ,5,0,0.,12.0,0.,12.0,0.,12.0,0.,12.0
1981-08-24 12:00:42.550 ,5,0,0.,12.0,0.,12.0,0.,12.0,0.,12.0
1981-08-24 12:00:54.550 ,4,0,0.,12.0,0.,12.0,0.,12.0,0.,12.0
1981-08-24 12:01:06.550 ,4,0,0.,12.0,0.,12.0,0.,12.0,0.,12.0
1981-08-24 12:01:18.550 ,4,0,0.,12.0,0.,12.0,0.,12.0,0.,12.0
1981-08-24 12:01:30.550 ,4,0,0.,12.0,0.,12.0,0.,12.0,0.,12.0
1981-08-24 12:01:42.550 ,3,0,0.,12.0,0.,12.0,0.,12.0,0.,12.0
1981-08-24 12:01:54.550 ,3,0,0.,12.0,0.,12.0,0.,12.0,0.,12.0
1981-08-24 12:02:06.550 ,3,0,0.,12.0,0.,12.0,0.,12.0,0.,12.0
1981-08-24 12:02:18.550 ,3,0,0.,12.0,0.,12.0,0.,12.0,0.,12.0
1981-08-24 12:02:30.550 ,2,0,0.,12.0,0.,12.0,0.,12.0,0.,12.0
1981-08-24 12:02:42.550 ,2,0,0.,12.0,0.,12.0,0.,12.0,0.,12.0
1981-08-24 12:02:54.550 ,2,0,0.,12.0,0.,12.0,0.,12.0,0.,12.0
1981-08-24 12:03:06.550 ,2,0,0.,12.0,0.,12.0,0.,12.0,0.,12.0
1981-08-24 12:03:18.550 ,1,0,0.,12.0,0.,12.0,0.,12.0,0.,12.0
1981-08-24 12:03:30.550 ,1,0,0.,12.0,0.,12.0,0.,12.0,0.,12.0
1981-08-24 12:03:42.550 ,1,0,0.,12.0,0.,12.0,0.,12.0,0.,12.0
1981-08-24 12:03:54.550 ,1,0,0.,12.0,0.,12.0,0.,12.0,0.,12.0
1981-08-24 12:04:06.550 ,0,0,0.,12.0,0.,12.0,0.,12.0,0.,12.0
1981-08-24 12:04:18.550 ,0,0,0.,12.0,0.,12.0,0.,12.0,0.,12.0
1981-08-24 12:04:30.550 ,0,0,0.,12.0,0.,12.0,0.,12.0,0.,12.0
1981-08-24 12:04:42.550 ,0,0,0.,12.0,0.,12.0,0.,12.0,0.,12.0
1981-08-24 12:04:54.550 ,0,0,0.,12.0,0.,12.0,0.,12.0,0.,12.0
1981-08-24 12:05:06.550 ,0,0,0.,12.0,0.,12.0,0.,12.0,0.,12.0
1981-08-24 12:05:18.550 ,0,0,0.,12.0,0.,12.0,0.,12.0,0.,12.0
1981-08-24 12:05:30.550 ,0,0,0.,12.0,0.,12.0,0.,12.0,0.,12.0
1981-08-24 12:05:42.550 ,1,0,0.,12.0,0.,12.0,0.,12.0,0.,12.0
1981-08-24 12:05:54.550 ,1,0,0.,12.0,0.,12.0,0.,12.0,0.,12.0
1981-08-24 12:06:06.550 ,1,0,0.,12.0,0.,12.0,0.,12.0,0.,12.0
1981-08-24 12:06:18.550 ,1,0,0.,12.0,0.,12.0,0.,12.0,0.,12.0
1981-08-24 12:06:30.550 ,2,0,0.,12.0,0.,12.0,0.,12.0,0.,12.0
1981-08-24 12:06:42.550 ,2,0,0.,12.0,0.,12.0,0.,12.0,0.,12.0
1981-08-24 12:06:54.550 ,2,0,0.,12.0,0.,12.0,0.,12.0,0.,12.0
1981-08-24 12:07:06.550 ,2,0,0.,12.0,0.,12.0,0.,12.0,0.,12.0
1981-08-24 12:07:18.550 ,3,0,0.,12.0,0.,12.0,0.,12.0,0.,12.0
1981-08-24 12:07:30.550 ,3,0,0.,12.0,0.,12.0,0.,12.0,0.,12.0
1981-08-24 12:07:42.550 ,3,0,0.,12.0,0.,12.0,0.,12.0,0.,12.0
1981-08-24 12:07:54.550 ,3,0,0.,12.0,0.,12.0,0.,12.0,0.,12.0
1981-08-24 12:08:06.550 ,4,0,0.,12.0,0.,12.0,0.,12.0,0.,12.0
1981-08-24 12:08:18.550 ,4,0,0.,12.0,0.,12.0,0.,12.0,0.,12.0
1981-08-24 12:08:30.550 ,4,0,0.,12.0,0.,12.0,0.,12.0,0.,12.0
1981-08-24 12:08:42.550 ,4,0,0.,12.0,0.,12.0,0.,12.0,0.,12.0
1981-08-24 12:08:54.550 ,5,0,0.,12.0,0.,12.0,0.,12.0,0.,12.0
1981-08-24 12:09:06.550 ,5,0,0.,12.0,0.,12.0,0.,12.0,0.,12.0
1981-08-24 12:09:18.550 ,0,0,0.,12.0,0.,12.0,0.,12.0,0.,12.0
1981-08-24 12:09:30.550 ,0,0,,0,,0,,0,,0
1981-08-24 12:09:42.550 ,6,0,0.,12.0,0.,12.0,0.,12.0,0.,12.0
1981-08-24 12:09:54.550 ,6,0,0.,12.0,0.,12.0,0.,12.0,0.,12.0
1981-08-24 12:10:06.550 ,6,0,0.,12.0,0.,12.0,0.,12.0,0.,12.0
1981-08-24 12:10:18.550 ,6,0,0.,12.0,0.,12.0,0.,12.0,0.,12.0
1981-08-24 12:10:30.550 ,7,0,0.,12.0,0.,12.0,0.,12.0,0.,12.0
1981-08-24 12:10:42.550 ,7,0,0.,12.0,0.,12.0,0.,12.0,0.,12.0
1981-08-24 12:10:54.550 ,7,0,0.,12.0,0.,12.0,0.,12.0,0.,12.0
1981-08-24 12:11:06.550 ,7,0,0.,12.0,0.,12.0,0.,12.0,0.,12.0
1981-08-24 12:11:18.550 ,7,0,0.,12.0,0.,12.0,0.,12.0,0.,12.0
1981-08-24 12:11:30.550 ,7,0,0.,12.0,0.,12.0,0.,12.0,0.,12.0
1981-08-24 12:11:42.550 ,6,0,0.,12.0,0.,12.0,0.,12.0,0.,12.0
1981-08-24 12:11:54.550 ,6,0,0.,12.0,0.,12.0,0.,12.0,0.,12.0
1981-08-24 12:12:06.550 ,5,0,0.,12.0,0.,12.0,0.,12.0,0.,12.0
1981-08-24 12:12:18.550 ,5,0,0.,12.0,0.,12.0,0.,12.0,0.,12.0
1981-08-24 12:12:30.550 ,4,0,0.,12.0,0.,12.0,0.,12.0,0.,12.0
1981-08-24 12:12:42.550 ,4,0,0.,12.0,0.,12.0,0.,12.0,0.,12.0
1981-08-24 12:12:54.550 ,0,0,0.,12.0,0.,12.0,0.,12.0,0.,12.0
1981-08-24 12:13:06.550 ,0,0,0.,12.0,0.,12.0,0.,12.0,0.,12.0
1981-08-24 12:13:18.550 ,2,0,0.,12.0,0.,12.0,0.,12.0,0.,12.0
1981-08-24 12:13:30.550 ,2,0,0.,12.0,0.,12.0,0.,12.0,0.,12.0
1981-08-24 12:13:42.550 ,1,0,0.,12.0,0.,12.0,0.,12.0,0.,12.0
1981-08-24 12:13:54.550 ,1,0,0.,12.0,0.,12.0,0.,12.0,0.,12.0
1981-08-24 12:14:06.550 ,0,0,0.,12.0,0.,12.0,0.,12.0,0.,12.0
1981-08-24 12:14:18.550 ,0,0,0.,12.0,0.,12.0,0.,12.0,0.,12.0
1981-08-24 12:14:30.550 ,0,0,0.,12.0,0.,12.0,0.,12.0,0.,12.0
1981-08-24 12:14:42.550 ,0,0,0.,12.0,0.,12.0,0.,12.0,0.,12.0
1981-08-24 12:14:54.550 ,1,0,,0,,0,,0,,0
1981-08-24 12:15:06.550 ,1,0,0.,12.0,0.,12.0,0.,12.0,0.,12.0
1981-08-24 12:15:18.550 ,2,0,,0,,0,,0,,0
1981-08-24 12:15:30.550 ,2,0,0.,12.0,0.,12.0,0.,12.0,0.,12.0
1981-08-24 12:15:42.550 ,3,0,0.,12.0,0.,12.0,0.,12.0,0.,12.0
1981-08-24 12:15:54.550 ,3,0,0.,12.0,0.,12.0,0.,12.0,0.,12.0
1981-08-24 12:16:06.550 ,4,0,0.,12.0,0.,12.0,0.,12.0,0.,12.0
1981-08-24 12:16:18.550 ,4,0,0.,12.0,0.,12.0,0.,12.0,0.,12.0
1981-08-24 12:16:30.550 ,5,0,0.,12.0,0.,12.0,0.,12.0,0.,12.0
1981-08-24 12:16:42.550 ,5,0,0.,12.0,0.,12.0,0.,12.0,0.,12.0
1981-08-24 12:16:54.550 ,6,0,0.,12.0,0.,12.0,0.,12.0,0.,12.0
1981-08-24 12:17:06.550 ,6,0,0.,12.0,0.,12.0,0.,12.0,0.,12.0
1981-08-24 12:17:18.550 ,7,0,0.,12.0,0.,12.0,0.,12.0,0.,12.0
1981-08-24 12:17:30.550 ,7,0,0.,12.0,0.,12.0,0.,12.0,0.,12.0
1981-08-24 12:17:42.550 ,7,0,0.,12.0,0.,12.0,0.,12.0,0.,12.0
1981-08-24 12:17:54.550 ,7,0,0.,12.0,0.,12.0,0.,12.0,0.,12.0
1981-08-24 12:18:06.550 ,7,0,0.,12.0,0.,12.0,0.,12.0,0.,12.0
1981-08-24 12:18:18.550 ,7,0,0.,12.0,0.,12.0,0.,12.0,0.,12.0
1981-08-24 12:18:30.550 ,6,0,0.,12.0,0.,12.0,0.,12.0,0.,12.0
1981-08-24 12:18:42.550 ,6,0,0.,12.0,0.,12.0,0.,12.0,0.,12.0
1981-08-24 12:18:54.550 ,6,0,0.,12.0,0.,12.0,0.,12.0,0.,12.0
1981-08-24 12:19:06.550 ,6,0,0.,12.0,0.,12.0,0.,12.0,0.,12.0
1981-08-24 12:19:18.550 ,5,0,0.,12.0,0.,12.0,0.,12.0,0.,12.0
1981-08-24 12:19:30.550 ,5,0,0.,12.0,0.,12.0,0.,12.0,0.,12.0
1981-08-24 12:19:42.550 ,5,0,0.,12.0,0.,12.0,0.,12.0,0.,12.0
1981-08-24 12:19:54.550 ,5,0,0.,12.0,0.,12.0,0.,12.0,0.,12.0
1981-08-24 12:20:06.550 ,4,0,0.,12.0,0.,12.0,0.,12.0,0.,12.0
1981-08-24 12:20:18.550 ,4,0,0.,12.0,0.,12.0,0.,12.0,0.,12.0
1981-08-24 12:20:30.550 ,4,0,0.,12.0,0.,12.0,0.,12.0,0.,12.0
1981-08-24 12:20:42.550 ,4,0,0.,12.0,0.,12.0,0.,12.0,0.,12.0
1981-08-24 12:20:54.550 ,3,0,0.,12.0,0.,12.0,0.,12.0,0.,12.0
1981-08-24 12:21:06.550 ,3,0,0.,12.0,0.,12.0,0.,12.0,0.,12.0
1981-08-24 12:21:18.550 ,3,0,0.,12.0,0.,12.0,0.,12.0,0.,12.0
1981-08-24 12:21:30.550 ,3,0,0.,12.0,0.,12.0,0.,12.0,0.,12.0
1981-08-24 12:21:42.550 ,2,0,0.,12.0,0.,12.0,0.,12.0,0.,12.0
1981-08-24 12:21:54.550 ,2,0,0.,12.0,0.,12.0,0.,12.0,0.,12.0
1981-08-24 12:22:06.550 ,2,0,0.,12.0,0.,12.0,0.,12.0,0.,12.0
1981-08-24 12:22:18.550 ,2,0,0.,12.0,0.,12.0,0.,12.0,0.,12.0
1981-08-24 12:22:30.550 ,1,0,0.,12.0,0.,12.0,0.,12.0,0.,12.0
1981-08-24 12:22:42.550 ,1,0,0.,12.0,0.,12.0,0.,12.0,0.,12.0
1981-08-24 12:22:54.550 ,1,0,0.,12.0,0.,12.0,0.,12.0,0.,12.0
1981-08-24 12:23:06.550 ,1,0,0.,12.0,0.,12.0,0.,12.0,0.,12.0
1981-08-24 12:23:18.550 ,0,0,0.,12.0,0.,12.0,0.,12.0,0.,12.0
1981-08-24 12:23:30.550 ,0,0,0.,12.0,0.,12.0,0.,12.0,0.,12.0
1981-08-24 12:23:42.550 ,0,0,0.,12.0,0.,12.0,0.,12.0,0.,12.0
1981-08-24 12:23:54.550 ,0,0,0.,12.0,0.,12.0,0.,12.0,0.,12.0
1981-08-24 12:24:06.550 ,0,0,0.,12.0,0.,12.0,0.,12.0,0.,12.0
1981-08-24 12:24:18.550 ,0,0,0.,12.0,0.,12.0,0.,12.0,0.,12.0
1981-08-24 12:24:30.550 ,0,0,0.,12.0,0.,12.0,0.,12.0,0.,12.0
1981-08-24 12:24:42.550 ,0,0,0.,12.0,0.,12.0,0.,12.0,0.,12.0
1981-08-24 12:24:54.550 ,1,0,0.,12.0,0.,12.0,0.,12.0,0.,12.0
1981-08-24 12:25:06.550 ,1,0,0.,12.0,0.,12.0,0.,12.0,0.,12.0
1981-08-24 12:25:18.550 ,1,0,0.,12.0,0.,12.0,0.,12.0,0.,12.0
1981-08-24 12:25:30.550 ,1,0,0.,12.0,0.,12.0,0.,12.0,0.,12.0
1981-08-24 12:25:42.550 ,2,0,0.,12.0,0.,12.0,0.,12.0,0.,12.0
1981-08-24 12:25:54.550 ,2,0,0.,12.0,0.,12.0,0.,12.0,0.,12.0
1981-08-24 12:26:06.550 ,2,0,0.,12.0,0.,12.0,0.,12.0,0.,12.0
1981-08-24 12:26:18.550 ,2,0,0.,12.0,0.,12.0,0.,12.0,0.,12.0
1981-08-24 12:26:30.550 ,3,0,0.,12.0,0.,12.0,0.,12.0,0.,12.0
1981-08-24 12:26:42.550 ,3,0,0.,12.0,0.,12.0,0.,12.0,0.,12.0
1981-08-24 12:26:54.550 ,3,0,0.,12.0,0.,12.0,0.,12.0,0.,12.0
1981-08-24 12:27:06.550 ,3,0,0.,12.0,0.,12.0,0.,12.0,0.,12.0
1981-08-24 12:27:18.550 ,4,0,0.,12.0,0.,12.0,0.,12.0,0.,12.0
1981-08-24 12:27:30.550 ,4,0,0.,12.0,0.,12.0,0.,12.0,0.,12.0
1981-08-24 12:27:42.550 ,4,0,0.,12.0,0.,12.0,0.,12.0,0.,12.0
1981-08-24 12:27:54.550 ,4,0,0.,12.0,0.,12.0,0.,12.0,0.,12.0
1981-08-24 12:28:06.550 ,5,0,0.,12.0,0.,12.0,0.,12.0,0.,12.0
1981-08-24 12:28:18.550 ,5,0,0.,12.0,0.,12.0,0.,12.0,0.,12.0
1981-08-24 12:28:30.550 ,5,0,0.,12.0,0.,12.0,0.,12.0,0.,12.0
1981-08-24 12:28:42.550 ,5,0,0.,12.0,0.,12.0,0.,12.0,0.,12.0
1981-08-24 12:28:54.550 ,6,0,0.,12.0,0.,12.0,0.,12.0,0.,12.0
1981-08-24 12:29:06.550 ,6,0,0.,12.0,0.,12.0,0.,12.0,0.,12.0
1981-08-24 12:29:18.550 ,6,0,0.,12.0,0.,12.0,0.,12.0,0.,12.0
1981-08-24 12:29:30.550 ,6,0,0.,12.0,0.,12.0,0.,12.0,0.,12.0
1981-08-24 12:29:42.550 ,7,0,0.,12.0,0.,12.0,0.,12.0,0.,12.0
1981-08-24 12:29:54.550 ,7,0,0.,12.0,0.,12.0,0.,12.0,0.,12.0
1981-08-24 12:30:06.550 ,7,0,0.,12.0,0.,12.0,0.,12.0,0.,12.0
1981-08-24 12:30:18.550 ,7,0,0.,12.0,0.,12.0,0.,12.0,0.,12.0
1981-08-24 12:30:30.550 ,7,0,0.,12.0,0.,12.0,0.,12.0,0.,12.0
1981-08-24 12:30:42.550 ,7,0,0.,12.0,0.,12.0,0.,12.0,0.,12.0
1981-08-24 12:30:54.550 ,6,0,0.,12.0,0.,12.0,0.,12.0,0.,12.0
1981-08-24 12:31:06.550 ,6,0,0.,12.0,0.,12.0,0.,12.0,0.,12.0
1981-08-24 12:31:18.550 ,5,0,0.,12.0,0.,12.0,0.,12.0,0.,12.0
1981-08-24 12:31:30.550 ,5,0,0.,12.0,0.,12.0,0.,12.0,0.,12.0
1981-08-24 12:31:42.550 ,4,0,0.,12.0,0.,12.0,0.,12.0,0.,12.0
1981-08-24 12:31:54.550 ,4,0,0.,12.0,0.,12.0,0.,12.0,0.,12.0
1981-08-24 12:32:06.550 ,3,0,0.,12.0,0.,12.0,0.,12.0,0.,12.0
1981-08-24 12:32:18.550 ,3,0,0.,12.0,0.,12.0,0.,12.0,0.,12.0
1981-08-24 12:32:30.550 ,2,0,0.,12.0,0.,12.0,0.,12.0,0.,12.0
1981-08-24 12:32:42.550 ,2,0,0.,12.0,0.,12.0,0.,12.0,0.,12.0
1981-08-24 12:32:54.550 ,1,0,0.,12.0,0.,12.0,0.,12.0,0.,12.0
1981-08-24 12:33:06.550 ,1,0,0.,12.0,0.,12.0,0.,12.0,0.,12.0
1981-08-24 12:33:18.550 ,0,0,0.,12.0,0.,12.0,0.,12.0,0.,12.0
1981-08-24 12:33:30.550 ,0,0,0.,12.0,0.,12.0,0.,12.0,0.,12.0
1981-08-24 12:33:42.550 ,0,0,0.,12.0,0.,12.0,0.,12.0,0.,12.0
1981-08-24 12:33:54.550 ,0,0,0.,12.0,0.,12.0,0.,12.0,0.,12.0
1981-08-24 12:34:06.550 ,1,0,0.,12.0,0.,12.0,0.,12.0,0.,12.0
1981-08-24 12:34:18.550 ,1,0,0.,12.0,0.,12.0,0.,12.0,0.,12.0
1981-08-24 12:34:30.550 ,2,0,0.,12.0,0.,12.0,0.,12.0,0.,12.0
1981-08-24 12:34:42.550 ,2,0,0.,12.0,0.,12.0,0.,12.0,0.,12.0
1981-08-24 12:34:54.550 ,3,0,0.,12.0,0.,12.0,0.,12.0,0.,12.0
1981-08-24 12:35:06.550 ,3,0,0.,12.0,0.,12.0,0.,12.0,0.,12.0
1981-08-24 12:35:18.550 ,4,0,0.,12.0,0.,12.0,0.,12.0,0.,12.0
1981-08-24 12:35:30.550 ,4,0,0.,12.0,0.,12.0,0.,12.0,0.,12.0
1981-08-24 12:35:42.550 ,5,0,0.,12.0,0.,12.0,0.,12.0,0.,12.0
1981-08-24 12:35:54.550 ,5,0,0.,12.0,0.,12.0,0.,12.0,0.,12.0
1981-08-24 12:36:06.550 ,6,0,0.,12.0,0.,12.0,0.,12.0,0.,12.0
1981-08-24 12:36:18.550 ,6,0,0.,12.0,0.,12.0,0.,12.0,0.,12.0
1981-08-24 12:36:30.550 ,7,0,0.,12.0,0.,12.0,0.,12.0,0.,12.0
1981-08-24 12:36:42.550 ,7,0,0.,12.0,0.,12.0,0.,12.0,0.,12.0
1981-08-24 12:36:54.550 ,7,0,0.,12.0,0.,12.0,0.,12.0,0.,12.0
1981-08-24 12:37:06.550 ,7,0,0.,12.0,0.,12.0,0.,12.0,0.,12.0
1981-08-24 12:37:18.550 ,7,0,0.,12.0,0.,12.0,0.,12.0,0.,12.0
1981-08-24 12:37:30.550 ,7,0,0.,12.0,0.,12.0,0.,12.0,0.,12.0
1981-08-24 12:37:42.550 ,6,0,0.,12.0,0.,12.0,0.,12.0,0.,12.0
1981-08-24 12:37:54.550 ,6,0,0.,12.0,0.,12.0,0.,12.0,0.,12.0
1981-08-24 12:38:06.550 ,6,0,0.,12.0,0.,12.0,0.,12.0,0.,12.0
1981-08-24 12:38:18.550 ,6,0,0.,12.0,0.,12.0,0.,12.0,0.,12.0
1981-08-24 12:38:30.550 ,5,0,0.,12.0,0.,12.0,0.,12.0,0.,12.0
1981-08-24 12:38:42.550 ,5,0,0.,12.0,0.,12.0,0.,12.0,0.,12.0
1981-08-24 12:38:54.550 ,5,0,0.,12.0,0.,12.0,0.,12.0,0.,12.0
1981-08-24 12:39:06.550 ,5,0,0.,12.0,0.,12.0,0.,12.0,0.,12.0
1981-08-24 12:39:18.550 ,4,0,0.,12.0,0.,12.0,0.,12.0,0.,12.0
1981-08-24 12:39:30.550 ,4,0,0.,12.0,0.,12.0,0.,12.0,0.,12.0
1981-08-24 12:39:42.550 ,4,0,0.,12.0,0.,12.0,0.,12.0,0.,12.0
1981-08-24 12:39:54.550 ,4,0,0.,12.0,0.,12.0,0.,12.0,0.,12.0
1981-08-24 12:40:06.550 ,3,0,0.,12.0,0.,12.0,0.,12.0,0.,12.0
1981-08-24 12:40:18.550 ,3,0,0.,12.0,0.,12.0,0.,12.0,0.,12.0
1981-08-24 12:40:30.550 ,3,0,0.,12.0,0.,12.0,0.,12.0,0.,12.0
1981-08-24 12:40:42.550 ,3,0,0.,12.0,0.,12.0,0.,12.0,0.,12.0
1981-08-24 12:40:54.550 ,2,0,0.,12.0,0.,12.0,0.,12.0,0.,12.0
1981-08-24 12:41:06.550 ,2,0,0.,12.0,0.,12.0,0.,12.0,0.,12.0
1981-08-24 12:41:18.550 ,2,0,0.,12.0,0.,12.0,0.,12.0,0.,12.0
1981-08-24 12:41:30.550 ,2,0,0.,12.0,0.,12.0,0.,12.0,0.,12.0
1981-08-24 12:41:42.550 ,1,0,0.,12.0,0.,12.0,0.,12.0,0.,12.0
1981-08-24 12:41:54.550 ,1,0,0.,12.0,0.,12.0,0.,12.0,0.,12.0
1981-08-24 12:42:06.550 ,1,0,0.,12.0,0.,12.0,0.,12.0,0.,12.0
1981-08-24 12:42:18.550 ,1,0,0.,12.0,0.,12.0,0.,12.0,0.,12.0
1981-08-24 12:42:30.550 ,0,0,0.,12.0,0.,12.0,0.,12.0,0.,12.0
1981-08-24 12:42:42.550 ,0,0,0.,12.0,0.,12.0,0.,12.0,0.,12.0
1981-08-24 12:42:54.550 ,0,0,0.,12.0,0.,12.0,0.,12.0,0.,12.0
1981-08-24 12:43:06.550 ,0,0,0.,12.0,0.,12.0,0.,12.0,0.,12.0
1981-08-24 12:43:18.550 ,0,0,0.,12.0,0.,12.0,0.,12.0,0.,12.0
1981-08-24 12:43:30.550 ,0,0,0.,12.0,0.,12.0,0.,12.0,0.,12.0
1981-08-24 12:43:42.550 ,0,0,0.,12.0,0.,12.0,0.,12.0,0.,12.0
1981-08-24 12:43:54.550 ,0,0,0.,12.0,0.,12.0,0.,12.0,0.,12.0
1981-08-24 12:44:06.550 ,1,0,0.,12.0,0.,12.0,0.,12.0,0.,12.0
1981-08-24 12:44:18.550 ,1,0,0.,12.0,0.,12.0,0.,12.0,0.,12.0
1981-08-24 12:44:30.550 ,1,0,0.,12.0,0.,12.0,0.,12.0,0.,12.0
1981-08-24 12:44:42.550 ,1,0,0.,12.0,0.,12.0,0.,12.0,0.,12.0
1981-08-24 12:44:54.550 ,2,0,0.,12.0,0.,12.0,0.,12.0,0.,12.0
1981-08-24 12:45:06.550 ,2,0,0.,12.0,0.,12.0,0.,12.0,0.,12.0
1981-08-24 12:45:18.550 ,2,0,0.,12.0,0.,12.0,0.,12.0,0.,12.0
1981-08-24 12:45:30.550 ,2,0,0.,12.0,0.,12.0,0.,12.0,0.,12.0
1981-08-24 12:45:42.550 ,3,0,0.,12.0,0.,12.0,0.,12.0,0.,12.0
1981-08-24 12:45:54.550 ,3,0,0.,12.0,0.,12.0,0.,12.0,0.,12.0
1981-08-24 12:46:06.550 ,3,0,0.,12.0,0.,12.0,0.,12.0,0.,12.0
1981-08-24 12:46:18.550 ,3,0,0.,12.0,0.,12.0,0.,12.0,0.,12.0
1981-08-24 12:46:30.550 ,4,0,0.,12.0,0.,12.0,0.,12.0,0.,12.0
1981-08-24 12:46:42.550 ,4,0,0.,12.0,0.,12.0,0.,12.0,0.,12.0
1981-08-24 12:46:54.550 ,4,0,0.,12.0,0.,12.0,0.,12.0,0.,12.0
1981-08-24 12:47:06.550 ,4,0,0.,12.0,0.,12.0,0.,12.0,0.,12.0
1981-08-24 12:47:18.550 ,5,0,0.,12.0,0.,12.0,0.,12.0,0.,12.0
1981-08-24 12:47:30.550 ,5,0,0.,12.0,0.,12.0,0.,12.0,0.,12.0
1981-08-24 12:47:42.550 ,5,0,0.,12.0,0.,12.0,0.,12.0,0.,12.0
1981-08-24 12:47:54.550 ,5,0,0.,12.0,0.,12.0,0.,12.0,0.,12.0
1981-08-24 12:48:06.550 ,6,0,0.,12.0,0.,12.0,0.,12.0,0.,12.0
1981-08-24 12:48:18.550 ,6,0,0.,12.0,0.,12.0,0.,12.0,0.,12.0
1981-08-24 12:48:30.550 ,6,0,0.,12.0,0.,12.0,0.,12.0,0.,12.0
1981-08-24 12:48:42.550 ,6,0,0.,12.0,0.,12.0,0.,12.0,0.,12.0
1981-08-24 12:48:54.550 ,7,0,0.,12.0,0.,12.0,0.,12.0,0.,12.0
1981-08-24 12:49:06.550 ,7,0,0.,12.0,0.,12.0,0.,12.0,0.,12.0
1981-08-24 12:49:18.550 ,7,0,0.,12.0,0.,12.0,0.,12.0,0.,12.0
1981-08-24 12:49:30.550 ,7,0,0.,12.0,0.,12.0,0.,12.0,0.,12.0
1981-08-24 12:49:42.550 ,7,0,0.,12.0,0.,12.0,0.,12.0,0.,12.0
1981-08-24 12:49:54.550 ,7,0,0.,12.0,0.,12.0,0.,12.0,0.,12.0
1981-08-24 12:50:06.550 ,6,0,0.,12.0,0.,12.0,0.,12.0,0.,12.0
1981-08-24 12:50:18.550 ,6,0,0.,12.0,0.,12.0,0.,12.0,0.,12.0
1981-08-24 12:50:30.550 ,5,0,0.,12.0,0.,12.0,0.,12.0,0.,12.0
1981-08-24 12:50:42.550 ,5,0,0.,12.0,0.,12.0,0.,12.0,0.,12.0
1981-08-24 12:50:54.550 ,4,0,0.,12.0,0.,12.0,0.,12.0,0.,12.0
1981-08-24 12:51:06.550 ,4,0,0.,12.0,0.,12.0,0.,12.0,0.,12.0
1981-08-24 12:51:18.550 ,3,0,0.,12.0,0.,12.0,0.,12.0,0.,12.0
1981-08-24 12:51:30.550 ,3,0,0.,12.0,0.,12.0,0.,12.0,0.,12.0
1981-08-24 12:51:42.550 ,2,0,0.,12.0,0.,12.0,0.,12.0,0.,12.0
1981-08-24 12:51:54.550 ,2,0,0.,12.0,0.,12.0,0.,12.0,0.,12.0
1981-08-24 12:52:06.550 ,1,0,0.,12.0,0.,12.0,0.,12.0,0.,12.0
1981-08-24 12:52:18.550 ,1,0,0.,12.0,0.,12.0,0.,12.0,0.,12.0
1981-08-24 12:52:30.550 ,0,0,0.,12.0,0.,12.0,0.,12.0,0.,12.0
1981-08-24 12:52:42.550 ,0,0,0.,12.0,0.,12.0,0.,12.0,0.,12.0
1981-08-24 12:52:54.550 ,0,0,0.,12.0,0.,12.0,0.,12.0,0.,12.0
1981-08-24 12:53:06.550 ,0,0,0.,12.0,0.,12.0,0.,12.0,0.,12.0
1981-08-24 12:53:18.550 ,1,0,0.,12.0,0.,12.0,0.,12.0,0.,12.0
1981-08-24 12:53:30.550 ,1,0,0.,12.0,0.,12.0,0.,12.0,0.,12.0
1981-08-24 12:53:42.550 ,2,0,0.,12.0,0.,12.0,0.,12.0,0.,12.0
1981-08-24 12:53:54.550 ,2,0,0.,12.0,0.,12.0,0.,12.0,0.,12.0
1981-08-24 12:54:06.550 ,3,0,0.,12.0,0.,12.0,0.,12.0,0.,12.0
1981-08-24 12:54:18.550 ,3,0,0.,12.0,0.,12.0,0.,12.0,0.,12.0
1981-08-24 12:54:30.550 ,4,0,0.,12.0,0.,12.0,0.,12.0,0.,12.0
1981-08-24 12:54:42.550 ,4,0,0.,12.0,0.,12.0,0.,12.0,0.,12.0
1981-08-24 12:54:54.550 ,5,0,0.,12.0,0.,12.0,0.,12.0,0.,12.0
1981-08-24 12:55:06.550 ,5,0,0.,12.0,0.,12.0,0.,12.0,0.,12.0
1981-08-24 12:55:18.550 ,6,0,0.,12.0,0.,12.0,0.,12.0,0.,12.0
1981-08-24 12:55:30.550 ,6,0,0.,12.0,0.,12.0,0.,12.0,0.,12.0
1981-08-24 12:55:42.550 ,7,0,0.,12.0,0.,12.0,0.,12.0,0.,12.0
1981-08-24 12:55:54.550 ,7,0,0.,12.0,0.,12.0,0.,12.0,0.,12.0
1981-08-24 12:56:06.550 ,7,0,0.,12.0,0.,12.0,0.,12.0,0.,12.0
1981-08-24 12:56:18.550 ,7,0,0.,12.0,0.,12.0,0.,12.0,0.,12.0
1981-08-24 12:56:30.550 ,7,0,0.,12.0,0.,12.0,0.,12.0,0.,12.0
1981-08-24 12:56:42.550 ,7,0,0.,12.0,0.,12.0,0.,12.0,0.,12.0
1981-08-24 12:56:54.550 ,6,0,0.,12.0,0.,12.0,0.,12.0,0.,12.0
1981-08-24 12:57:06.550 ,6,0,0.,12.0,0.,12.0,0.,12.0,0.,12.0
1981-08-24 12:57:18.550 ,6,0,0.,12.0,0.,12.0,0.,12.0,0.,12.0
1981-08-24 12:57:30.550 ,6,0,0.,12.0,0.,12.0,0.,12.0,0.,12.0
1981-08-24 12:57:42.550 ,5,0,0.,12.0,0.,12.0,0.,12.0,0.,12.0
1981-08-24 12:57:54.550 ,5,0,0.,12.0,0.,12.0,0.,12.0,0.,12.0
1981-08-24 12:58:06.550 ,5,0,0.,12.0,0.,12.0,0.,12.0,0.,12.0
1981-08-24 12:58:18.550 ,5,0,0.,12.0,0.,12.0,0.,12.0,0.,12.0
1981-08-24 12:58:30.550 ,4,0,0.,12.0,0.,12.0,0.,12.0,0.,12.0
1981-08-24 12:58:42.550 ,4,0,0.,12.0,0.,12.0,0.,12.0,0.,12.0
1981-08-24 12:58:54.550 ,4,0,0.,12.0,0.,12.0,0.,12.0,0.,12.0
1981-08-24 12:59:06.550 ,4,0,0.,12.0,0.,12.0,0.,12.0,0.,12.0
1981-08-24 12:59:18.550 ,3,0,0.,12.0,0.,12.0,0.,12.0,0.,12.0
1981-08-24 12:59:30.550 ,3,0,0.,12.0,0.,12.0,0.,12.0,0.,12.0
1981-08-24 12:59:42.550 ,3,0,0.,12.0,0.,12.0,0.,12.0,0.,12.0
1981-08-24 12:59:54.550 ,3,0,0.,12.0,0.,12.0,0.,12.0,0.,12.0
1981-08-24 13:00:06.550 ,2,0,0.,12.0,0.,12.0,0.,12.0,0.,12.0
1981-08-24 13:00:18.550 ,2,0,0.,12.0,0.,12.0,0.,12.0,0.,12.0
1981-08-24 13:00:30.550 ,2,0,0.,12.0,0.,12.0,0.,12.0,0.,12.0
1981-08-24 13:00:42.550 ,2,0,0.,12.0,0.,12.0,0.,12.0,0.,12.0
1981-08-24 13:00:54.550 ,1,0,0.,12.0,0.,12.0,0.,12.0,0.,12.0
1981-08-24 13:01:06.550 ,1,0,0.,12.0,0.,12.0,0.,12.0,0.,12.0
1981-08-24 13:01:18.550 ,1,0,0.,12.0,0.,12.0,0.,12.0,0.,12.0
1981-08-24 13:01:30.550 ,1,0,0.,12.0,0.,12.0,0.,12.0,0.,12.0
1981-08-24 13:01:42.550 ,0,0,0.,12.0,0.,12.0,0.,12.0,0.,12.0
1981-08-24 13:01:54.550 ,0,0,0.,12.0,0.,12.0,0.,12.0,0.,12.0
1981-08-24 13:02:06.550 ,0,0,0.,12.0,0.,12.0,0.,12.0,0.,12.0
1981-08-24 13:02:18.550 ,0,0,0.,12.0,0.,12.0,0.,12.0,0.,12.0
1981-08-24 13:02:30.550 ,0,0,0.,12.0,0.,12.0,0.,12.0,0.,12.0
1981-08-24 13:02:42.550 ,0,0,0.,12.0,0.,12.0,0.,12.0,0.,12.0
1981-08-24 13:02:54.550 ,0,0,0.,12.0,0.,12.0,0.,12.0,0.,12.0
1981-08-24 13:03:06.550 ,0,0,0.,12.0,0.,12.0,0.,12.0,0.,12.0
1981-08-24 13:03:18.550 ,1,0,0.,12.0,0.,12.0,0.,12.0,0.,12.0
1981-08-24 13:03:30.550 ,1,0,0.,12.0,0.,12.0,0.,12.0,0.,12.0
1981-08-24 13:03:42.550 ,1,0,0.,12.0,0.,12.0,0.,12.0,0.,12.0
1981-08-24 13:03:54.550 ,1,0,0.,12.0,0.,12.0,0.,12.0,0.,12.0
1981-08-24 13:04:06.550 ,2,0,0.,12.0,0.,12.0,0.,12.0,0.,12.0
1981-08-24 13:04:18.550 ,2,0,0.,12.0,0.,12.0,0.,12.0,0.,12.0
1981-08-24 13:04:30.550 ,2,0,0.,12.0,0.,12.0,0.,12.0,0.,12.0
1981-08-24 13:04:42.550 ,2,0,0.,12.0,0.,12.0,0.,12.0,0.,12.0
1981-08-24 13:04:54.550 ,3,0,0.,12.0,0.,12.0,0.,12.0,0.,12.0
1981-08-24 13:05:06.550 ,3,0,0.,12.0,0.,12.0,0.,12.0,0.,12.0
1981-08-24 13:05:18.550 ,3,0,0.,12.0,0.,12.0,0.,12.0,0.,12.0
1981-08-24 13:05:30.550 ,3,0,0.,12.0,0.,12.0,0.,12.0,0.,12.0
1981-08-24 13:05:42.550 ,4,0,0.,12.0,0.,12.0,0.,12.0,0.,12.0
1981-08-24 13:05:54.550 ,4,0,0.,12.0,0.,12.0,0.,12.0,0.,12.0
1981-08-24 13:06:06.550 ,4,0,0.,12.0,0.,12.0,0.,12.0,0.,12.0
1981-08-24 13:06:18.550 ,4,0,0.,12.0,0.,12.0,0.,12.0,0.,12.0
1981-08-24 13:06:30.550 ,5,0,0.,12.0,0.,12.0,0.,12.0,0.,12.0
1981-08-24 13:06:42.550 ,5,0,0.,12.0,0.,12.0,0.,12.0,0.,12.0
1981-08-24 13:06:54.550 ,5,0,0.,12.0,0.,12.0,0.,12.0,0.,12.0
1981-08-24 13:07:06.550 ,5,0,0.,12.0,0.,12.0,0.,12.0,0.,12.0
1981-08-24 13:07:18.550 ,6,0,0.,12.0,0.,12.0,0.,12.0,0.,12.0
1981-08-24 13:07:30.550 ,6,0,0.,12.0,0.,12.0,0.,12.0,0.,12.0
1981-08-24 13:07:42.550 ,6,0,0.,12.0,0.,12.0,0.,12.0,0.,12.0
1981-08-24 13:07:54.550 ,6,0,0.,12.0,0.,12.0,0.,12.0,0.,12.0
1981-08-24 13:08:06.550 ,7,0,0.,12.0,0.,12.0,0.,12.0,0.,12.0
1981-08-24 13:08:18.550 ,7,0,0.,12.0,0.,12.0,0.,12.0,0.,12.0
1981-08-24 13:08:30.550 ,7,0,0.,12.0,0.,12.0,0.,12.0,0.,12.0
1981-08-24 13:08:42.550 ,7,0,0.,12.0,0.,12.0,0.,12.0,0.,12.0
1981-08-24 13:08:54.550 ,7,0,0.,12.0,0.,12.0,0.,12.0,0.,12.0
1981-08-24 13:09:06.550 ,7,0,0.,12.0,0.,12.0,0.,12.0,0.,12.0
1981-08-24 13:09:18.550 ,6,0,0.,12.0,0.,12.0,0.,12.0,0.,12.0
1981-08-24 13:09:30.550 ,6,0,0.,12.0,0.,12.0,0.,12.0,0.,12.0
1981-08-24 13:09:42.550 ,5,0,0.,12.0,0.,12.0,0.,12.0,0.,12.0
1981-08-24 13:09:54.550 ,5,0,0.,12.0,0.,12.0,0.,12.0,0.,12.0
1981-08-24 13:10:06.550 ,4,0,0.,12.0,0.,12.0,0.,12.0,0.,12.0
1981-08-24 13:10:18.550 ,4,0,0.,12.0,0.,12.0,0.,12.0,0.,12.0
1981-08-24 13:10:30.550 ,3,0,0.,12.0,0.,12.0,0.,12.0,0.,12.0
1981-08-24 13:10:42.550 ,3,0,0.,12.0,0.,12.0,0.,12.0,0.,12.0
1981-08-24 13:10:54.550 ,2,0,0.,12.0,0.,12.0,0.,12.0,0.,12.0
1981-08-24 13:11:06.550 ,2,0,0.,12.0,0.,12.0,0.,12.0,0.,12.0
1981-08-24 13:11:18.550 ,1,0,0.,12.0,0.,12.0,0.,12.0,0.,12.0
1981-08-24 13:11:30.550 ,1,0,0.,12.0,0.,12.0,0.,12.0,0.,12.0
1981-08-24 13:11:42.550 ,0,0,0.,12.0,0.,12.0,0.,12.0,0.,12.0
1981-08-24 13:11:54.550 ,0,0,0.,12.0,0.,12.0,0.,12.0,0.,12.0
1981-08-24 13:12:06.550 ,0,0,0.,12.0,0.,12.0,0.,12.0,0.,12.0
1981-08-24 13:12:18.550 ,0,0,0.,12.0,0.,12.0,0.,12.0,0.,12.0
1981-08-24 13:12:30.550 ,1,0,0.,12.0,0.,12.0,0.,12.0,0.,12.0
1981-08-24 13:12:42.550 ,1,0,0.,12.0,0.,12.0,0.,12.0,0.,12.0
1981-08-24 13:12:54.550 ,2,0,0.,12.0,0.,12.0,0.,12.0,0.,12.0
1981-08-24 13:13:06.550 ,2,0,0.,12.0,0.,12.0,0.,12.0,0.,12.0
1981-08-24 13:13:18.550 ,3,0,0.,12.0,0.,12.0,0.,12.0,0.,12.0
1981-08-24 13:13:30.550 ,3,0,0.,12.0,0.,12.0,0.,12.0,0.,12.0
1981-08-24 13:13:42.550 ,4,0,0.,12.0,0.,12.0,0.,12.0,0.,12.0
1981-08-24 13:13:54.550 ,4,0,0.,12.0,0.,12.0,0.,12.0,0.,12.0
1981-08-24 13:14:06.550 ,5,0,0.,12.0,0.,12.0,0.,12.0,0.,12.0
1981-08-24 13:14:18.550 ,5,0,0.,12.0,0.,12.0,0.,12.0,0.,12.0
1981-08-24 13:14:30.550 ,6,0,0.,12.0,0.,12.0,0.,12.0,0.,12.0
1981-08-24 13:14:42.550 ,6,0,0.,12.0,0.,12.0,0.,12.0,0.,12.0
1981-08-24 13:14:54.550 ,7,0,0.,12.0,0.,12.0,0.,12.0,0.,12.0
1981-08-24 13:15:06.550 ,7,0,0.,12.0,0.,12.0,0.,12.0,0.,12.0
1981-08-24 13:15:18.550 ,7,0,0.,12.0,0.,12.0,0.,12.0,0.,12.0
1981-08-24 13:15:30.550 ,7,0,0.,12.0,0.,12.0,0.,12.0,0.,12.0
1981-08-24 13:15:42.550 ,7,0,0.,12.0,0.,12.0,0.,12.0,0.,12.0
1981-08-24 13:15:54.550 ,7,0,0.,12.0,0.,12.0,0.,12.0,0.,12.0
1981-08-24 13:16:06.550 ,6,0,0.,12.0,0.,12.0,0.,12.0,0.,12.0
1981-08-24 13:16:18.550 ,6,0,0.,12.0,0.,12.0,0.,12.0,0.,12.0
1981-08-24 13:16:30.550 ,6,0,0.,12.0,0.,12.0,0.,12.0,0.,12.0
1981-08-24 13:16:42.550 ,6,0,0.,12.0,0.,12.0,0.,12.0,0.,12.0
1981-08-24 13:16:54.550 ,5,0,0.,12.0,0.,12.0,0.,12.0,0.,12.0
1981-08-24 13:17:06.550 ,5,0,0.,12.0,0.,12.0,0.,12.0,0.,12.0
1981-08-24 13:17:18.550 ,5,0,0.,12.0,0.,12.0,0.,12.0,0.,12.0
1981-08-24 13:17:30.550 ,5,0,0.,12.0,0.,12.0,0.,12.0,0.,12.0
1981-08-24 13:17:42.550 ,4,0,0.,12.0,0.,12.0,0.,12.0,0.,12.0